Regional Weather Roundup
Issued by NWS

Home | Current Version | Previous Version | Text Only | Print | Product List | Glossary Off
Versions: 1 2 3 4 5 6 7 8 9 10 11 12 13 14 15 16 17 18 19 20 21 22 23 24 25 26 27 28 29 30 31 32 33 34 35 36 37 38 39 40 41 42 43 44 45 46 47 48 49 50

000
ASUS43 KLSX 201257
RWRMO

WEATHER SUMMARY FOR MISSOURI
NATIONAL WEATHER SERVICE SPRINGFIELD MO
800 AM CDT FRI APR 20 2018

NOTE: "FAIR" INDICATES FEW OR NO CLOUDS BELOW 12,000 FEET WITH NO
       SIGNIFICANT WEATHER AND/OR OBSTRUCTIONS TO VISIBILITY.
       CURRENT SKY AND/OR WEATHER CONDITIONS ARE NOT AVAILABLE FOR
       CHILLICOTHE AND FARMINGTON.

MOZ001>031-035>038-043-044-053-054-201400-
...NORTHERN AND WESTERN MISSOURI...

CITY           SKY/WX    TMP DP  RH WIND       PRES   REMARKS
KANSAS CTY INT CLOUDY    43  31  62 SE8       30.45R
LEE`S SUMMIT   CLOUDY    41  34  76 SE6       30.46R
ST JOSEPH      MOSUNNY   41  32  70 E3        30.46R
CHILLICOTHE      N/A     40  30  67 CALM      30.49R

$$
MOZ066>068-077>081-088>096-101>105-201400-
...SOUTHWEST MISSOURI...

CITY           SKY/WX    TMP DP  RH WIND       PRES   REMARKS
SPRINGFIELD    CLOUDY    43  32  65 CALM      30.43R
JOPLIN         SUNNY     43  34  70 SE10      30.42F

$$
MOZ032>034-039>042-045>050-055>058-069>072-201400-
...CENTRAL MISSOURI...

CITY           SKY/WX    TMP DP  RH WIND       PRES   REMARKS
COLUMBIA       NOT AVBL
JEFFERSON CITY SUNNY     34  30  85 CALM      30.50R
ROLLA          SUNNY     43  30  60 E7        30.47R
SEDALIA        CLOUDY    42  34  73 SE3       30.48R
WARRENSBURG    MOSUNNY   36  32  87 CALM      30.47R

$$
MOZ051-052-059>065-201400-
...EAST CENTRAL MISSOURI...

CITY           SKY/WX    TMP DP  RH WIND       PRES   REMARKS
ST LOUIS INTL  MOSUNNY   44  26  49 E7        30.50R

$$
MOZ072>076-082>087-097>100-106>115-201400-
...SOUTH CENTRAL AND SOUTHEAST MISSOURI...

CITY           SKY/WX    TMP DP  RH WIND       PRES   REMARKS
CAPE GIRARDEAU FAIR      45  27  49 NE9       30.46R
POPLAR BLUFF   FAIR      45  34  65 NE7       30.46R
WEST PLAINS    SUNNY     42  31  64 NE7       30.44R

$$




USA.gov is the U.S. government's official web portal to all federal, state and local government web resources and services.